RH
22 21 19 18 18 17 16 16 16 16 16 15 16 15 15 15 14 14 13 14 14 14 14 14 14 15 15 15 15 13 10 8 8 11 13 15 14 11 12 11 10 8 7 9 9 12 13 13 12 12 15 17 22 28 20 24 45 50 47 42 32 33 32 30 33 32 25 28 40 40 39 38 34 28 22 25 25 26 29 28 27 24 23 22 22 22 21 23
21 20 20 19 18 17 16 15 15 15 15 15 16 15 15 14 13 13 13 13 13 13 13 13 14 14 15 16 16 15 14 10 9 12 13 12 10 11 13 10 10 9 8 9 10 12 16 18 15 14 22 23 21 23 20 22 35 53 59 39 31 37 26 24 30 27 23 27 38 43 38 35 34 28 23 28 29 28 32 31 28 26 24 23 22 23 21 22
21 20 20 19 18 17 16 15 14 14 15 15 14 14 13 12 12 12 12 12 12 12 12 13 13 14 15 15 14 15 16 13 10 12 12 10 9 12 12 11 10 9 9 10 11 11 14 18 12 15 25 23 23 22 19 25 29 42 53 36 30 38 24 19 26 25 26 31 40 42 38 37 34 30 27 31 31 33 36 32 29 28 26 26 24 24 23 22
20 19 19 17 16 14 14 14 14 14 14 13 12 12 11 11 11 10 10 11 11 12 12 12 12 13 13 13 15 15 15 15 12 12 13 10 10 12 12 11 10 9 11 11 11 12 12 12 12 26 30 23 37 35 20 25 26 30 46 39 26 28 23 18 23 27 30 33 37 39 38 37 35 33 31 32 32 35 37 31 31 30 25 27 26 25 25 22
19 18 17 16 14 12 12 13 14 13 12 11 10 10 11 10 9 9 10 10 13 13 11 12 11 13 12 11 14 13 16 19 13 12 12 11 10 11 12 11 10 10 11 11 12 12 11 12 20 40 39 27 44 43 22 24 28 26 32 30 25 24 20 18 23 28 33 35 36 37 35 34 33 32 31 32 37 41 37 30 32 29 23 26 27 25 27 24
19 17 16 15 13 12 12 13 13 11 10 11 12 13 13 10 11 12 12 14 15 13 10 12 13 14 13 13 14 11 17 18 12 13 12 11 11 11 12 11 11 10 10 11 12 12 14 17 22 41 49 35 34 32 24 26 28 26 22 20 23 22 18 19 22 27 35 37 37 36 32 35 33 32 34 32 39 48 42 34 32 28 23 23 25 26 28 26
17 15 14 14 12 11 12 12 11 10 11 13 15 15 13 11 12 12 13 15 14 11 10 14 15 14 13 11 9 13 21 17 12 14 12 11 11 11 11 11 12 10 10 11 12 16 20 21 23 43 57 39 25 27 28 27 27 31 25 18 19 20 20 22 25 32 38 38 38 38 32 35 37 32 34 33 35 44 40 32 28 25 23 23 25 27 27 26
17 14 13 12 12 12 13 12 11 12 13 14 15 14 12 12 12 12 11 12 12 11 11 13 14 13 13 11 11 18 22 16 13 14 11 11 11 11 11 10 11 10 11 13 14 18 21 22 25 39 45 32 26 29 29 27 29 31 23 18 20 20 24 30 36 39 40 39 36 36 33 35 41 35 31 33 33 38 35 29 28 26 25 26 27 29 28 27
18 13 12 11 11 12 12 13 13 13 13 13 13 12 11 12 12 12 10 9 10 10 11 12 10 12 13 13 18 20 15 13 14 13 11 11 12 12 11 11 11 11 12 14 15 15 18 23 25 27 28 29 31 29 34 33 26 26 23 19 19 19 24 30 35 38 36 36 33 32 36 36 38 35 30 32 34 36 34 29 30 29 28 30 29 29 30 29
18 14 12 10 9 11 11 12 12 12 12 12 12 11 11 12 13 13 11 9 10 10 10 10 10 13 11 13 20 18 12 13 14 12 11 11 13 12 13 12 11 11 13 14 15 17 20 19 19 22 26 31 32 31 38 35 25 29 31 25 25 24 23 25 31 36 34 31 33 33 36 36 34 36 35 33 35 35 31 30 31 30 29 30 31 31 31 32
17 15 14 11 10 11 11 10 10 11 12 11 11 11 11 11 11 13 13 12 12 12 12 10 11 12 9 14 21 16 12 14 14 12 10 11 13 12 13 13 11 11 13 15 16 18 18 16 19 24 25 25 30 35 33 31 28 27 28 25 32 36 22 23 31 31 32 28 33 37 34 34 32 38 43 35 33 33 28 30 30 30 31 30 32 32 33 34
17 16 15 13 12 12 11 10 9 11 11 11 11 10 11 11 11 12 13 13 13 15 15 11 11 10 10 16 18 15 13 13 14 12 10 11 12 12 13 13 13 12 13 15 16 18 17 16 20 25 29 26 28 31 25 34 40 32 35 25 30 45 27 20 29 28 29 28 31 34 32 37 36 37 44 36 30 31 28 29 29 29 30 29 32 33 34 34
17 16 14 14 13 12 12 11 10 11 11 11 10 10 11 10 10 11 12 14 12 15 17 13 11 12 17 21 16 13 14 13 13 12 10 11 12 12 13 13 13 13 13 14 14 17 17 14 15 25 39 37 28 24 29 44 42 31 40 37 34 47 34 19 27 28 24 29 33 29 31 43 41 38 40 34 28 29 29 28 28 28 28 29 31 33 34 32
17 16 15 14 12 12 13 11 11 11 11 11 10 11 11 10 11 11 12 13 12 16 18 15 11 12 19 21 14 13 14 12 12 12 11 11 12 13 12 13 14 13 12 13 13 13 14 12 14 26 36 39 32 31 47 55 48 38 38 51 52 40 36 34 34 31 21 29 37 28 35 41 35 40 39 30 27 27 29 28 27 28 28 29 29 32 33 30
16 16 16 13 13 13 13 12 11 11 11 11 11 11 10 11 11 12 13 12 12 14 14 13 11 15 24 19 11 13 13 11 12 12 12 13 12 13 13 13 13 13 13 13 13 12 12 11 17 27 28 36 47 48 58 59 63 65 38 47 66 44 45 50 37 36 24 28 39 31 40 42 33 42 36 26 28 27 27 28 27 28 27 27 29 29 31 29
16 16 16 14 14 14 13 13 12 13 13 11 12 12 11 11 12 13 13 13 14 13 11 12 10 15 23 16 10 14 12 12 14 13 13 14 13 14 14 13 12 12 12 11 13 13 13 18 25 34 31 34 54 59 57 57 70 78 44 36 57 46 48 48 34 41 34 29 37 33 39 39 32 40 35 27 28 27 28 28 26 28 27 27 28 28 29 29
15 16 15 14 14 14 14 13 13 14 13 13 13 13 12 11 11 11 12 12 12 11 11 10 10 15 17 13 12 14 14 14 13 14 15 13 14 16 13 14 15 12 14 13 13 14 17 31 33 34 41 38 49 57 49 50 60 69 59 47 54 47 45 47 38 40 40 34 36 36 38 34 30 40 40 29 26 28 27 27 27 27 27 27 27 27 28 29
14 14 14 15 14 14 14 13 14 14 14 15 15 15 14 12 11 11 13 13 11 13 13 11 15 19 15 12 14 15 15 14 14 16 15 14 16 19 17 20 19 14 22 21 16 23 28 42 42 34 47 44 44 57 49 42 41 44 50 48 54 55 47 47 43 39 41 42 40 40 41 36 33 42 45 32 26 29 27 26 28 27 27 27 27 28 28 29
13 14 14 15 15 15 15 14 15 14 16 16 14 18 17 13 13 12 12 13 16 17 14 18 23 22 16 14 16 15 14 14 15 16 16 17 16 18 18 20 25 24 35 33 20 35 40 44 50 42 46 47 46 53 41 34 37 37 44 45 48 54 50 45 41 42 45 44 43 42 41 36 30 36 44 37 28 28 27 27 27 27 28 27 27 28 28 29
14 14 14 16 15 14 13 13 13 13 14 12 13 19 23 27 27 23 23 22 27 23 17 25 26 20 18 18 18 15 14 14 15 19 20 18 16 18 18 25 37 34 42 42 22 37 49 46 51 42 39 44 45 47 39 37 44 43 47 51 50 50 48 40 37 47 49 44 48 49 45 39 33 34 39 39 32 29 29 28 28 28 27 28 27 28 28 28
14 14 14 15 13 15 13 11 12 12 14 14 14 20 34 42 29 20 26 27 29 27 21 24 21 19 17 17 19 15 15 14 15 21 19 19 20 14 18 35 38 26 42 55 36 42 50 42 42 35 35 42 44 50 49 49 52 49 48 49 51 50 43 37 37 45 46 42 48 50 46 43 39 36 38 40 34 30 30 28 28 28 27 28 28 28 29 29
13 13 14 14 16 18 17 16 16 15 20 22 20 26 38 40 22 17 25 24 24 25 24 22 20 23 18 16 20 16 19 18 16 20 19 22 22 16 27 42 36 28 47 55 41 47 48 38 39 38 45 53 56 60 54 54 58 53 49 46 46 49 47 46 46 46 44 42 46 50 46 41 37 36 40 43 36 29 29 28 26 27 27 27 27 28 29 30
13 13 13 16 17 16 20 22 20 19 20 21 23 26 29 28 21 20 24 25 25 24 27 26 23 25 22 19 19 18 22 21 20 23 22 24 26 34 45 47 46 46 49 48 42 46 38 33 46 50 50 46 45 60 60 56 57 48 44 45 45 43 43 46 46 46 47 45 49 54 49 37 35 39 43 45 41 35 33 32 30 28 28 27 26 28 29 29
13 14 14 17 16 15 19 17 16 17 16 18 21 24 25 25 24 24 30 35 31 25 26 26 27 26 22 20 20 22 24 25 27 24 22 28 33 41 45 49 58 49 44 53 52 43 27 29 53 60 57 45 35 51 57 45 47 52 50 45 41 38 36 39 43 47 49 49 49 48 45 40 39 43 43 43 45 44 40 36 35 33 31 31 31 30 31 32
13 13 14 15 13 15 15 12 15 16 17 20 20 22 23 22 23 24 35 38 28 30 29 24 28 24 19 22 22 23 26 26 27 23 23 29 34 36 37 50 55 38 41 52 46 39 31 33 47 48 54 55 40 39 45 39 41 55 57 44 35 34 36 42 48 51 48 45 39 37 46 50 43 40 39 39 42 43 41 38 38 38 36 36 36 32 34 38
12 13 13 11 11 14 14 15 17 16 18 18 20 24 19 21 24 20 36 43 31 35 31 18 22 21 19 26 27 28 28 24 22 23 25 25 32 34 33 47 47 39 54 56 43 42 39 41 46 46 54 58 48 39 42 46 41 45 52 46 40 40 42 48 49 51 52 44 38 38 47 52 42 32 37 45 46 42 41 41 40 39 38 38 36 32 33 38
13 12 10 10 10 11 13 15 19 22 19 14 20 21 14 20 23 18 34 39 24 29 28 21 22 20 24 30 29 25 21 23 23 23 27 24 27 32 31 41 39 43 65 55 37 39 39 41 43 48 55 49 42 37 39 46 39 42 50 44 45 44 42 50 48 51 56 46 45 44 39 50 50 36 42 50 44 40 39 39 40 39 40 39 36 34 34 35
12 10 9 10 8 9 12 10 16 23 19 17 18 16 16 18 18 24 30 18 14 26 25 24 23 20 31 34 30 32 29 30 24 19 29 25 23 35 39 44 44 50 64 48 31 38 40 37 35 40 47 40 31 28 37 44 35 45 55 44 47 50 48 57 55 58 64 48 49 50 34 47 55 40 45 47 36 37 37 36 39 38 39 39 37 36 35 36
10 10 8 9 8 9 11 9 13 17 16 15 12 14 18 13 21 36 29 13 18 29 27 25 22 23 37 33 31 45 39 32 32 28 33 24 19 36 39 50 63 55 55 49 38 41 41 42 48 41 34 37 36 35 46 46 33 43 51 41 48 56 57 65 61 65 71 56 52 51 37 47 55 41 40 40 36 40 39 39 43 40 41 41 38 38 36 37
9 10 7 9 10 8 11 11 13 18 16 11 12 18 15 22 53 52 23 17 20 24 30 27 25 34 39 24 24 45 40 38 53 44 36 32 29 41 40 50 68 55 55 63 49 48 53 54 60 50 36 37 37 40 52 53 44 44 44 39 48 55 54 64 76 73 65 63 64 53 40 47 55 48 39 36 43 47 39 38 43 42 44 43 41 41 38 39
9 9 7 9 10 10 16 14 14 18 16 11 13 18 16 36 71 49 13 22 26 25 31 29 40 56 49 26 23 42 42 41 56 45 36 44 46 52 46 42 54 58 71 76 51 51 58 47 51 59 54 44 32 35 51 58 55 47 41 39 48 59 51 56 83 81 59 64 70 53 42 48 55 51 41 39 48 51 43 37 35 36 40 42 44 44 42 42
9 10 8 9 10 11 16 19 18 15 13 15 16 30 41 37 41 35 19 20 23 29 32 28 44 55 49 36 28 44 43 31 49 56 48 53 53 51 46 43 49 49 61 67 52 55 60 50 50 53 51 44 33 35 47 54 52 44 44 49 62 77 68 61 79 81 65 63 59 46 42 47 49 42 34 35 38 43 47 42 35 33 35 39 44 45 46 46
10 13 10 10 13 12 17 21 19 14 15 20 22 44 62 41 28 38 33 18 19 35 41 39 48 49 43 33 26 43 44 26 40 54 50 55 54 42 41 55 53 35 40 50 46 53 63 62 52 40 40 41 33 32 37 42 42 37 41 55 69 75 71 73 77 72 69 67 54 43 44 50 49 42 40 36 31 38 48 48 44 41 38 38 42 45 49 49
13 15 11 14 15 14 20 20 18 20 19 23 31 38 39 32 35 40 36 33 36 46 54 54 50 41 35 32 32 43 39 28 41 51 48 48 42 32 34 47 49 47 55 49 41 47 48 49 46 36 38 35 28 34 37 37 39 40 42 48 58 63 63 72 78 69 69 73 60 44 50 60 52 42 45 43 40 45 50 53 57 54 49 48 47 47 48 46
19 16 14 18 17 18 22 18 21 22 19 37 50 37 28 36 39 34 40 48 45 46 52 55 48 31 33 48 52 47 34 31 42 47 46 39 32 34 36 36 43 56 59 42 41 50 38 39 48 42 39 33 28 40 47 42 40 44 46 43 49 60 61 67 78 71 65 78 79 61 60 64 46 33 40 43 44 46 45 49 55 53 51 54 51 46 42 38
23 20 17 16 18 23 21 19 23 20 31 54 47 32 48 53 30 28 45 42 39 44 36 40 44 27 31 51 51 47 40 36 37 35 39 41 37 40 42 43 47 53 54 43 42 46 38 43 52 43 38 39 36 39 47 47 42 40 44 44 44 47 51 58 68 70 68 77 82 67 59 55 42 40 46 44 39 39 40 42 43 42 43 48 47 41 37 33
20 19 15 15 19 22 19 23 23 23 46 56 32 37 64 48 25 45 60 44 45 50 27 24 34 25 30 41 41 47 42 35 37 32 35 41 37 41 49 50 48 51 58 52 41 43 46 47 52 46 35 42 50 46 45 50 47 41 42 46 43 43 55 64 64 75 86 83 76 67 64 58 49 49 51 47 40 37 40 41 39 39 38 40 40 36 35 32
18 20 16 15 17 18 21 23 19 32 56 48 31 47 54 35 39 68 71 52 49 48 28 20 25 28 38 38 35 43 38 37 46 37 33 37 33 40 50 47 48 53 58 53 42 45 49 44 51 55 43 45 53 46 43 46 42 41 41 41 42 50 69 71 61 71 83 81 78 75 73 66 60 64 57 43 39 38 39 40 39 39 36 36 35 33 34 33
20 31 28 17 18 23 22 17 23 46 56 45 42 45 39 43 64 82 81 63 47 40 32 27 26 28 38 43 39 36 34 41 47 37 30 30 28 35 43 43 48 58 65 58 45 47 49 41 46 53 46 45 44 43 51 49 40 43 42 40 47 59 74 69 58 70 78 79 86 85 77 62 56 69 62 40 37 39 38 40 39 36 35 34 33 32 32 30
29 42 35 19 18 26 22 21 42 55 41 44 63 54 44 55 68 82 93 76 50 39 36 35 32 27 35 46 43 35 37 43 42 36 32 32 30 30 37 43 46 58 68 56 45 52 50 41 48 54 50 47 41 42 51 47 42 47 46 49 53 54 63 61 57 71 78 79 90 93 84 57 40 53 52 37 38 40 39 41 38 35 36 33 33 32 29 27
33 37 34 21 15 23 27 31 55 68 48 45 62 58 57 65 63 78 98 89 66 51 44 45 39 35 42 43 36 39 45 47 44 40 37 37 31 25 38 53 49 50 54 43 42 53 48 44 57 59 48 46 44 43 46 44 45 49 50 60 63 57 63 65 66 76 76 74 84 90 83 58 37 42 44 37 39 39 39 42 37 35 34 31 31 30 27 26
31 30 29 22 14 20 32 39 62 87 72 47 49 57 66 69 61 66 81 78 65 52 50 53 50 51 52 40 37 46 44 40 43 40 37 39 33 32 53 68 61 55 55 49 49 58 60 59 60 54 46 45 45 46 50 51 48 46 47 57 66 68 67 66 74 81 76 75 81 84 83 61 38 40 43 40 41 39 39 41 38 34 31 30 29 28 27 27
45 36 24 19 18 23 32 34 44 68 73 60 59 64 69 70 61 58 64 60 52 50 53 55 49 46 46 40 41 45 35 33 40 40 43 47 43 54 77 80 66 57 54 51 49 53 61 60 54 54 55 48 42 43 48 48 40 38 48 55 58 66 68 71 83 83 75 79 79 82 87 62 36 41 45 41 43 42 39 39 37 34 30 29 29 28 28 28
63 44 31 22 14 18 28 31 29 43 68 72 61 57 60 63 59 54 57 58 52 49 52 53 45 38 46 51 46 40 32 28 30 33 41 46 48 71 95 89 64 48 48 56 51 41 46 55 55 55 55 48 43 46 52 53 42 37 53 60 57 68 74 71 75 72 68 73 72 82 89 57 32 40 41 36 39 37 33 34 35 36 34 31 31 30 31 30
46 34 45 39 21 20 35 56 61 61 76 70 50 52 54 49 57 63 61 63 63 58 50 48 48 48 54 54 44 43 41 31 28 33 38 44 56 78 96 92 72 56 63 79 66 41 44 59 53 45 50 52 47 47 55 62 56 47 53 56 55 65 65 56 62 68 69 71 71 78 77 46 27 34 32 30 34 32 31 32 33 36 36 35 35 35 34 34
26 26 49 49 42 48 55 77 84 71 76 65 39 48 53 40 54 69 61 54 57 60 53 48 51 51 49 44 38 43 46 37 34 37 36 43 58 76 93 96 83 71 76 86 77 59 58 61 52 48 54 51 42 43 48 54 54 48 50 55 56 60 59 61 74 76 73 79 75 64 57 46 37 36 33 33 35 34 34 32 30 33 34 35 36 36 38 38
25 26 44 37 36 49 49 61 74 59 56 49 26 35 52 45 45 50 49 51 57 58 51 48 48 40 37 41 38 41 49 42 37 38 38 48 60 70 84 89 85 82 79 72 69 65 56 52 55 56 53 47 43 44 45 47 47 44 47 54 59 64 64 63 67 66 67 77 70 51 48 54 48 38 36 37 35 34 33 31 31 31 31 34 35 37 41 40
25 29 48 40 28 34 27 38 72 69 48 42 37 40 50 50 45 41 41 48 57 55 40 40 49 47 48 50 35 34 46 41 38 42 40 49 64 64 65 70 77 84 74 58 63 68 57 55 63 61 55 53 50 47 47 49 49 48 51 54 57 66 69 61 55 57 61 63 56 44 46 53 47 37 37 37 34 34 33 31 32 33 33 36 36 39 40 38
34 34 47 48 41 48 47 51 74 72 50 49 49 44 49 52 49 49 49 46 51 55 42 35 46 56 63 60 39 36 47 36 30 42 44 47 59 60 56 59 72 83 68 48 57 66 58 64 76 72 63 57 52 50 53 56 57 56 56 56 57 62 66 62 54 53 55 54 48 44 48 50 43 38 38 35 32 35 35 35 36 35 35 36 37 39 39 38
37 29 34 47 48 59 71 68 63 55 46 46 41 42 56 60 52 50 51 44 39 46 47 40 49 66 74 68 49 43 52 41 22 34 46 42 45 56 56 56 73 88 72 52 53 51 47 67 86 78 63 56 60 63 59 57 61 58 48 48 53 59 65 66 61 57 60 61 55 52 60 60 47 39 40 39 37 40 40 38 37 33 33 34 35 37 38 39
42 34 33 41 37 44 61 64 60 49 39 39 39 42 51 57 60 54 44 48 50 47 51 51 55 70 74 69 59 51 60 62 41 38 47 38 37 50 45 45 74 91 77 66 63 51 47 67 80 71 58 54 61 65 56 51 58 59 54 53 58 65 71 72 67 65 64 62 60 63 67 60 43 36 39 39 39 40 38 36 34 31 31 32 33 36 38 38
43 35 41 45 31 39 62 62 52 43 42 53 53 44 45 57 71 57 34 51 73 66 63 67 62 60 61 62 63 59 65 72 60 55 63 58 61 70 58 54 75 87 79 74 71 64 62 67 65 60 60 61 62 60 53 50 56 56 53 57 60 63 70 69 62 61 59 54 55 61 56 43 35 34 36 35 35 36 35 33 32 31 31 32 34 37 38 38
Wind_Speed
8 9 12 13 12 10 9 9 9 9 11 10 9 9 7 7 7 7 7 6 6 3 2 2 2 3 3 5 7 11 18 25 28 33 28 19 23 20 17 14 13 11 7 5 5 5 8 11 11 10 7 5 6 4 5 5 4 5 4 4 3 3 3 5 7 6 4 4 6 7 3 7 4 2 2 4 8 4 4 5 4 5 6 6 9 13 16 15
7 8 11 12 11 10 8 8 8 9 10 8 7 6 6 7 7 7 6 6 4 0 1 3 2 4 2 2 3 6 9 20 29 30 25 21 22 19 16 14 10 9 5 1 4 7 7 6 8 9 7 4 5 5 4 3 5 4 3 4 2 5 2 3 6 6 4 6 6 5 5 5 5 6 3 2 1 1 4 3 4 4 4 5 8 12 13 14
7 7 9 10 9 8 7 8 9 9 9 7 7 6 6 6 5 5 4 3 1 2 3 5 5 6 4 5 5 6 5 12 20 19 23 24 21 19 18 12 8 8 4 4 7 9 9 6 6 8 6 4 3 4 5 4 4 3 4 4 3 5 1 1 4 6 5 9 8 5 5 3 5 6 3 4 3 1 2 3 2 2 4 5 6 10 12 12
7 7 8 8 7 8 8 9 11 10 10 10 9 8 6 3 2 2 2 1 1 3 4 6 8 9 8 8 6 5 6 8 8 14 21 22 20 19 17 11 7 6 5 11 12 13 13 10 9 7 6 4 4 4 5 4 2 3 2 3 4 4 3 2 2 6 6 8 9 7 5 4 5 3 3 7 4 3 6 7 8 8 10 8 8 11 12 11
7 7 8 8 8 10 11 12 13 13 12 11 9 9 7 5 3 2 2 2 0 1 2 5 6 9 10 9 8 7 7 5 5 17 21 20 20 17 17 12 4 3 8 15 15 14 11 8 8 7 6 4 5 5 4 4 3 4 3 2 5 4 3 1 2 7 6 6 7 8 6 5 5 1 5 10 6 5 6 8 10 9 12 12 12 13 11 11
8 8 10 11 12 14 14 14 14 13 10 9 9 9 9 8 7 6 5 3 2 4 6 8 10 8 2 2 2 3 5 3 8 18 18 19 19 15 16 12 3 3 6 12 12 10 7 7 7 5 4 4 4 4 3 5 4 5 2 2 2 3 5 2 3 5 5 7 7 6 4 4 5 1 5 9 7 6 5 7 10 10 15 16 14 13 11 11
8 10 13 14 16 16 15 13 12 10 8 8 8 8 9 10 10 8 6 5 5 10 9 7 12 15 13 12 13 12 8 2 12 17 16 18 19 15 14 12 5 6 6 9 10 8 6 8 7 4 4 4 3 4 3 5 6 6 2 2 2 3 4 2 4 4 4 6 5 5 4 4 6 4 3 6 7 6 6 4 10 12 16 16 13 13 13 14
8 10 13 15 16 15 12 10 9 8 7 7 8 8 10 11 11 9 6 4 5 10 8 1 6 5 6 8 12 10 5 4 14 15 13 16 21 20 16 14 9 9 10 12 8 6 6 7 5 4 4 3 3 4 3 5 7 5 3 0 2 4 3 4 6 5 5 5 3 5 3 2 4 3 3 6 7 5 3 6 11 13 13 12 11 12 13 13
8 9 11 12 12 11 9 8 7 6 6 6 7 9 11 12 12 11 9 5 2 5 6 7 6 4 4 4 7 6 3 7 13 12 11 14 19 22 22 22 15 13 17 15 8 6 4 2 3 4 5 2 4 3 2 5 3 2 4 2 3 4 2 3 5 5 4 3 3 5 2 4 3 2 3 6 6 4 4 7 8 10 9 8 8 12 14 14
8 8 9 9 8 8 7 6 5 4 6 6 7 9 11 11 11 11 12 12 9 6 2 3 4 5 3 3 7 5 5 8 10 8 9 12 16 21 25 27 20 18 18 17 15 10 4 6 5 7 8 3 4 3 3 5 2 3 6 5 5 4 0 3 4 2 2 2 2 4 1 4 3 2 3 6 6 5 5 6 5 7 8 8 7 12 15 15
7 7 8 7 6 5 5 4 3 5 6 6 8 9 10 9 9 8 8 9 10 11 11 10 8 6 10 9 7 4 5 8 8 7 7 10 17 20 23 25 23 20 17 18 18 11 8 10 9 7 5 3 4 4 4 3 3 5 7 6 5 3 1 3 4 3 1 0 3 5 3 3 3 2 5 7 7 7 8 8 7 7 8 8 8 11 13 16
6 6 7 6 5 4 3 4 3 4 5 6 7 8 8 6 6 5 4 4 5 8 8 6 5 8 17 15 5 2 6 9 7 6 6 9 15 17 17 19 22 21 17 17 15 10 8 7 10 7 1 3 3 3 2 3 5 5 6 5 3 6 2 1 2 5 2 1 5 6 1 3 4 6 7 5 8 7 7 8 8 8 8 7 8 8 11 17
5 5 6 6 5 4 4 4 3 4 5 6 5 5 5 3 3 4 5 3 3 6 8 4 1 1 8 7 2 2 7 10 6 2 4 7 9 12 13 13 16 20 21 20 16 14 11 11 18 11 2 6 2 1 3 5 5 2 4 4 1 7 1 3 1 4 3 3 6 3 3 5 7 10 7 4 9 9 8 9 8 8 7 7 7 6 9 16
4 5 6 6 5 4 4 4 5 4 5 5 4 3 2 2 4 5 4 0 3 5 6 6 6 6 7 2 1 5 7 7 4 2 3 5 4 8 11 11 11 15 19 21 19 18 15 18 22 11 3 6 2 2 5 6 4 1 2 2 2 3 4 4 3 1 1 2 3 3 3 6 7 10 6 6 10 11 10 10 9 8 7 7 7 7 8 13
3 4 6 6 6 6 4 5 5 4 4 4 3 3 3 4 5 3 2 2 3 2 3 6 6 6 7 2 0 4 7 6 6 7 7 5 4 5 7 9 11 12 14 16 16 15 17 19 17 6 2 4 4 6 5 4 4 3 2 3 3 1 5 7 4 2 3 1 2 5 3 7 7 8 5 7 9 11 11 10 10 9 9 8 7 8 7 11
3 4 5 6 7 6 4 3 3 3 4 4 4 4 3 5 5 4 3 1 1 2 4 5 4 5 6 1 1 3 5 6 8 9 8 5 4 6 5 5 8 10 11 13 11 10 16 18 9 3 2 5 6 5 3 4 4 3 2 3 4 2 4 6 2 1 1 1 1 3 4 6 6 5 4 7 9 10 10 10 10 10 10 9 7 8 7 9
4 5 6 7 7 5 3 2 4 7 7 7 7 8 6 4 2 3 4 4 5 2 5 6 5 5 4 1 1 3 4 6 10 9 6 5 4 6 2 4 3 5 6 12 12 8 12 11 3 2 5 5 3 3 3 3 4 3 3 1 4 3 3 5 3 2 2 2 2 4 5 9 9 5 4 9 10 10 11 11 11 10 9 8 8 8 7 8
5 6 7 8 7 6 6 6 7 9 9 8 8 10 11 8 4 3 3 2 3 1 4 6 6 4 2 2 1 4 6 7 10 10 7 3 4 7 7 5 3 3 3 8 11 8 7 5 3 3 4 5 5 5 4 2 4 3 3 2 3 3 3 5 5 2 3 2 4 5 7 12 12 7 6 9 10 11 13 12 9 9 9 8 8 8 8 9
7 9 10 11 9 7 6 6 6 7 6 3 3 5 7 8 7 7 10 9 2 1 1 3 4 2 1 2 3 6 7 6 7 9 9 4 2 6 9 9 5 4 4 4 6 6 3 4 5 4 3 4 1 3 5 6 6 6 5 3 4 6 4 6 7 3 2 3 7 7 7 10 11 9 6 8 10 11 12 9 8 8 8 8 8 8 9 9
11 13 12 10 6 3 2 4 4 6 5 5 3 0 1 3 5 5 11 12 4 1 1 1 0 1 1 2 5 8 5 2 4 10 14 8 2 2 7 9 7 6 5 1 3 4 4 5 4 1 3 4 5 5 4 3 5 4 3 3 5 5 6 7 6 5 2 3 7 6 7 11 13 12 8 7 8 10 11 10 10 10 8 9 9 10 10 10
16 13 8 5 4 2 1 3 4 6 7 8 5 1 2 3 3 1 2 5 1 1 2 2 2 1 1 1 6 7 1 0 4 13 18 10 3 2 5 6 6 6 4 2 2 3 5 6 1 5 6 4 3 5 4 4 4 3 3 3 4 4 7 7 4 4 2 3 6 5 8 13 12 13 8 6 8 11 13 13 13 12 10 9 10 12 11 9
14 7 4 4 4 3 1 1 2 4 5 5 6 4 3 4 4 4 4 3 1 2 3 2 1 2 2 1 6 6 3 3 6 13 18 12 6 2 2 6 6 2 4 2 2 4 6 3 6 6 3 4 3 2 4 5 4 2 2 1 3 4 5 7 3 2 1 1 6 8 9 13 12 11 8 7 10 10 10 13 12 11 10 10 11 11 10 9
8 3 4 4 3 4 3 1 1 1 2 3 8 7 6 7 7 4 4 5 1 2 3 3 3 4 4 2 6 7 5 4 2 9 17 12 5 3 3 6 4 2 5 4 3 3 3 3 6 3 5 5 1 4 6 5 2 1 1 1 4 3 1 4 3 1 2 3 5 7 9 11 8 6 5 5 7 6 4 8 9 8 10 12 10 9 10 11
4 1 4 2 2 4 5 3 2 3 5 8 11 10 9 9 6 3 3 4 1 1 1 1 1 0 1 2 7 6 3 1 0 6 14 9 2 2 4 4 4 4 3 3 6 6 1 4 3 5 3 4 2 4 5 3 3 3 4 5 4 4 2 5 4 5 6 2 3 5 7 7 5 4 6 3 2 6 4 5 8 8 10 9 8 9 11 11
3 3 3 1 1 4 4 3 4 6 7 9 10 10 9 6 1 1 3 3 1 2 2 1 1 0 0 3 7 2 2 1 0 3 9 7 2 1 2 2 3 2 3 1 6 5 1 2 4 3 3 4 3 0 2 3 2 4 4 7 6 5 5 6 6 6 5 3 2 4 4 6 4 3 7 4 2 6 4 5 11 10 8 7 9 11 11 10
3 3 1 0 1 2 2 2 3 5 5 5 8 8 5 2 1 0 3 4 2 4 2 0 0 2 1 4 6 1 3 2 2 3 6 6 2 2 3 1 3 2 5 1 3 2 2 1 2 3 3 5 4 1 3 4 3 5 3 6 4 4 5 6 4 2 2 3 3 3 2 4 5 4 6 4 4 8 5 7 12 10 8 8 10 11 10 10
3 2 1 1 0 0 1 2 4 4 2 2 8 6 1 0 1 1 3 5 3 2 1 1 0 3 1 3 4 2 1 4 2 4 6 6 3 2 3 2 1 1 3 2 2 1 3 1 3 3 4 4 3 2 3 5 3 4 3 1 4 7 7 4 2 2 2 3 4 3 3 2 5 5 4 4 5 8 8 9 11 10 11 11 11 12 11 11
4 2 1 1 1 1 1 2 5 4 1 4 9 5 2 0 1 1 4 3 2 0 2 1 0 2 1 2 5 4 1 3 2 2 6 8 5 2 3 2 5 2 1 4 1 2 2 2 3 3 4 1 1 2 4 6 1 6 4 3 5 5 4 0 4 3 1 2 4 4 2 0 6 5 2 3 3 7 9 11 11 11 12 12 13 13 13 12
3 3 1 1 1 1 1 2 3 3 2 6 9 6 3 1 2 4 4 1 2 1 1 1 1 1 3 3 5 4 2 2 1 4 6 7 6 5 3 3 6 5 1 3 2 3 1 2 5 5 3 3 5 3 5 7 3 6 5 5 2 2 2 3 4 2 2 3 3 5 1 1 5 6 2 1 2 6 8 9 9 10 10 11 12 13 13 11
3 3 2 1 1 1 1 1 2 3 4 7 8 5 2 2 4 6 2 3 1 0 1 1 1 2 4 4 4 5 3 2 3 4 4 3 5 7 4 2 6 6 1 4 1 3 2 2 2 3 3 4 3 2 4 6 5 5 6 5 3 4 3 3 2 3 4 3 5 5 1 2 3 6 3 3 4 5 6 7 8 8 9 10 10 11 11 9
3 3 3 3 2 2 2 2 2 5 6 8 8 3 1 3 5 5 2 4 0 2 1 1 2 3 6 3 1 4 3 4 5 4 3 3 6 7 4 1 3 4 3 5 2 3 5 2 1 2 2 2 2 2 0 1 2 3 3 3 4 3 3 3 4 4 3 4 5 4 2 2 2 6 5 5 6 6 6 8 10 9 10 10 9 9 9 9
1 3 3 4 4 4 3 1 3 6 7 9 6 3 4 2 1 2 3 3 1 2 0 1 2 3 4 2 1 3 2 3 4 4 2 3 3 3 2 1 1 3 4 3 3 5 3 2 2 3 1 2 3 2 3 3 4 4 3 4 4 4 4 4 4 2 1 5 3 3 2 1 5 9 9 10 11 9 9 9 11 11 10 10 9 9 8 7
0 1 2 3 3 2 2 3 5 8 9 9 4 5 7 4 3 4 2 2 1 1 1 2 1 1 2 1 1 2 1 1 2 3 1 1 3 2 1 1 2 2 1 2 2 4 4 4 3 2 1 1 3 1 2 2 3 4 2 3 3 3 4 4 4 2 3 5 3 4 2 3 5 7 9 12 11 9 8 9 10 10 10 10 8 7 7 7
3 2 1 1 2 2 4 5 7 9 9 7 4 5 5 1 5 3 2 3 1 2 2 2 2 2 2 0 1 1 0 1 1 3 2 2 2 1 2 2 0 2 2 2 1 1 1 4 2 2 1 1 2 2 3 2 2 1 2 3 3 3 1 2 3 2 4 6 4 2 2 3 3 5 7 9 8 7 6 7 7 8 10 8 6 6 7 8
3 3 3 4 5 4 5 7 7 8 7 4 6 5 3 4 4 2 3 4 1 1 2 2 3 3 3 2 2 1 1 1 1 2 2 1 1 2 2 2 1 2 3 1 1 1 1 5 4 1 1 2 2 2 3 4 2 0 2 2 1 3 4 2 3 3 1 4 4 2 3 5 4 9 8 3 6 7 6 6 6 9 10 6 6 9 8 8
2 3 4 5 5 4 5 6 6 6 5 5 6 2 4 4 2 2 3 1 2 3 1 2 3 2 3 4 3 2 0 1 1 1 1 1 3 3 2 3 2 3 3 2 2 1 0 5 3 2 2 2 1 3 2 2 0 0 1 1 2 3 5 3 1 1 4 1 4 2 4 5 3 8 8 5 6 8 7 6 7 10 9 6 8 10 9 9
1 2 3 5 4 2 3 4 5 4 3 7 4 3 5 3 1 3 2 1 2 4 4 0 1 1 2 2 2 2 1 1 1 1 1 2 2 3 3 2 1 2 3 2 2 2 1 4 4 1 1 1 1 2 3 3 2 2 1 3 1 2 3 3 1 4 4 1 4 2 6 7 3 4 6 6 7 9 8 8 8 9 9 8 11 12 11 11
2 3 3 5 3 2 3 3 4 3 5 5 1 4 3 2 1 1 1 1 1 3 4 3 3 2 2 1 2 2 1 1 2 0 1 2 2 3 4 2 1 2 1 2 1 1 2 2 5 1 1 3 3 2 3 3 2 2 2 2 2 1 1 1 0 1 2 3 5 4 6 6 3 4 6 6 8 10 9 8 7 9 10 9 11 12 12 12
2 2 2 3 2 1 2 3 3 4 5 2 3 3 1 2 1 1 1 0 2 3 2 4 1 1 3 3 3 2 2 3 2 1 1 1 2 1 3 2 2 2 1 3 2 1 2 1 4 2 1 2 3 1 1 1 2 3 1 1 2 2 3 1 1 2 1 2 3 4 5 4 6 6 5 8 11 10 9 8 8 10 10 10 10 11 11 10
2 2 1 1 2 2 2 3 3 5 3 2 4 3 1 1 2 2 2 1 1 1 2 3 2 1 3 3 3 2 1 3 3 2 2 2 2 2 2 2 3 4 1 3 2 1 2 2 4 4 3 1 1 3 5 5 3 2 0 1 1 0 2 0 0 3 3 2 2 2 4 7 8 4 6 11 12 9 9 8 9 10 10 10 11 10 10 9
3 1 2 1 1 1 2 5 4 3 2 2 2 2 1 0 1 1 3 1 0 1 1 3 3 3 3 2 2 2 2 2 3 2 3 3 2 2 1 1 5 5 2 3 1 1 1 2 3 3 4 3 3 3 3 5 6 5 4 4 3 3 3 1 3 1 1 3 4 2 3 10 8 3 7 10 9 8 9 8 9 11 12 12 11 11 11 10
3 1 3 1 0 0 4 4 2 2 3 1 1 1 0 1 1 0 2 1 1 0 1 2 2 2 3 2 2 3 3 2 2 3 3 4 3 2 1 2 4 5 4 2 3 2 2 3 1 4 5 4 4 3 1 2 3 4 3 3 3 4 5 4 3 3 1 1 2 3 2 10 8 4 5 7 6 8 8 8 10 12 12 13 13 12 11 11
2 3 1 3 1 0 5 2 3 2 0 2 1 1 0 1 1 0 1 1 0 0 1 1 2 2 2 1 2 3 3 3 4 4 3 3 2 1 1 2 2 4 4 1 2 1 2 3 1 5 5 2 2 2 2 1 3 2 2 2 4 3 3 5 5 3 2 3 2 2 3 10 8 3 5 5 6 8 9 9 10 11 12 13 14 13 11 11
2 3 0 4 3 1 3 2 2 1 3 2 1 1 1 1 2 2 1 2 1 2 1 1 2 1 1 1 2 3 3 2 2 2 2 3 2 1 3 3 1 2 1 2 3 1 1 1 1 3 6 5 4 4 4 3 0 2 3 2 3 4 6 4 2 3 2 5 6 4 5 10 7 2 3 7 8 10 13 12 10 10 12 12 12 12 11 11
1 0 1 4 4 4 2 3 4 3 2 0 1 2 1 0 1 2 2 2 2 3 1 1 1 1 1 2 1 1 2 1 2 1 1 1 2 2 3 4 2 1 2 1 1 0 2 2 2 1 3 5 5 5 3 2 2 2 2 3 4 5 8 4 2 3 3 4 5 5 8 11 10 10 12 14 14 15 18 16 12 10 11 12 11 11 11 10
1 1 2 4 5 6 2 1 4 4 3 2 1 2 1 0 2 1 2 2 1 2 1 1 1 1 1 1 0 2 3 1 0 1 1 2 2 2 2 3 2 1 2 2 3 2 2 1 3 5 6 7 8 7 1 2 1 5 5 5 6 6 6 5 4 3 5 3 3 10 14 14 18 18 17 16 16 17 18 17 16 13 11 12 12 12 11 10
1 1 1 1 3 3 3 3 3 4 2 3 2 1 1 1 2 1 1 2 0 1 1 1 2 2 2 3 2 3 3 0 0 1 2 2 2 2 2 0 1 1 1 2 2 3 4 3 5 7 11 12 10 9 4 3 5 10 9 6 7 7 7 7 7 8 5 4 6 14 11 10 17 19 17 18 18 18 18 18 18 17 15 14 14 14 14 13
0 2 2 1 1 1 1 1 3 4 2 1 2 1 1 1 2 2 2 1 1 1 1 0 2 5 6 5 3 2 1 1 2 3 1 1 1 2 2 0 0 2 2 2 2 3 5 4 4 4 9 12 10 11 9 6 7 9 10 10 7 8 11 14 16 11 9 6 13 14 9 9 16 20 19 20 19 19 20 20 18 17 17 17 16 16 16 16
2 1 0 2 0 2 1 1 3 5 3 1 1 1 3 4 4 4 2 1 2 2 2 3 6 6 6 4 3 2 3 2 2 4 2 2 1 1 1 2 1 2 3 3 1 1 4 4 3 2 6 12 11 10 8 5 5 9 12 11 10 11 14 16 17 12 10 13 19 19 18 18 19 21 22 21 20 17 17 18 17 18 19 18 17 17 17 16
1 2 1 2 3 1 2 3 3 5 2 1 1 2 3 5 6 4 2 3 2 2 2 4 6 4 4 5 5 4 6 5 1 3 4 3 1 3 3 3 2 2 2 2 0 1 2 3 0 3 4 10 7 5 4 3 5 10 15 13 9 11 11 11 12 10 7 13 19 18 17 17 17 19 19 18 16 13 14 18 19 18 18 17 18 18 18 18
1 2 3 4 2 1 2 2 2 4 1 1 3 3 2 5 7 4 2 2 3 3 5 6 4 0 2 3 6 7 7 5 4 4 5 5 3 3 3 2 5 5 2 2 0 0 2 2 2 5 4 6 3 6 7 7 7 10 16 15 8 7 6 7 7 7 8 9 12 10 9 11 13 13 13 13 13 13 16 19 19 19 20 20 19 20 21 20
3 2 2 5 2 1 0 1 2 1 2 3 3 3 2 3 4 3 1 1 3 3 3 5 4 2 2 3 7 8 5 5 6 4 3 3 1 2 1 1 5 6 5 4 1 1 3 1 1 3 2 6 4 6 9 8 7 6 6 6 5 5 5 5 5 7 10 7 5 6 8 11 13 14 16 17 16 15 16 18 18 18 21 23 21 20 20 20
Wind_Direction
97 102 101 96 94 102 122 137 144 137 122 114 105 98 89 92 100 107 112 118 131 121 121 144 125 127 88 58 53 46 42 52 53 43 40 11 359 6 358 349 344 355 358 352 38 55 38 40 37 44 63 41 8 344 17 33 44 56 79 88 110 163 174 178 180 184 155 149 186 204 171 130 161 227 168 44 37 47 39 20 2 24 39 77 115 131 143 157
98 99 99 96 95 96 112 131 142 137 126 118 101 95 88 97 108 113 121 128 144 260 227 223 243 210 227 344 351 8 24 38 42 34 21 10 12 11 2 359 356 2 1 15 77 76 65 37 28 43 53 36 356 354 10 14 46 77 111 89 159 192 165 157 170 179 150 150 168 173 169 151 165 177 147 93 319 338 67 9 343 25 38 90 126 143 154 165
95 90 92 93 95 97 111 125 133 134 127 115 95 92 88 98 114 115 132 147 220 286 251 254 256 232 263 287 302 334 333 22 37 18 4 11 14 11 8 1 1 9 24 112 110 100 97 87 64 62 58 46 3 11 28 13 35 95 105 83 212 206 155 143 164 168 153 140 141 157 173 151 161 166 142 142 174 268 162 193 218 196 199 175 170 164 163 175
92 84 85 84 94 106 117 122 126 127 116 103 87 79 75 79 120 133 169 191 286 278 272 280 272 256 271 285 292 317 335 26 31 350 358 9 10 13 10 2 10 28 89 113 116 113 103 91 74 67 69 44 347 19 36 353 28 78 91 139 185 162 109 313 158 139 130 131 142 154 141 139 175 162 140 142 129 273 242 211 198 194 189 185 195 183 175 181
96 86 83 87 104 111 115 120 121 119 108 95 80 71 65 60 80 113 133 128 273 278 336 332 304 271 265 276 279 298 353 43 339 345 1 6 7 13 13 9 12 53 111 119 118 115 102 79 60 51 63 44 350 24 22 339 64 69 2 148 149 127 124 276 111 121 118 107 123 144 150 156 162 127 160 158 159 226 236 218 208 194 179 177 186 186 183 183
102 92 89 97 109 109 112 117 116 113 101 87 76 66 62 66 80 93 102 105 129 125 92 57 48 58 83 266 275 338 48 92 324 347 2 7 10 12 16 16 38 93 127 130 120 112 87 52 53 46 55 51 25 47 356 333 58 92 19 52 95 119 140 172 112 124 129 115 131 162 163 126 129 167 185 184 206 239 268 225 203 190 178 175 175 179 184 187
105 99 95 98 105 108 111 112 108 103 92 82 71 62 66 75 81 83 88 96 132 143 130 81 57 69 79 84 82 68 79 73 337 353 7 18 24 22 23 28 74 136 142 113 105 109 83 56 76 97 78 70 69 67 6 351 47 87 108 7 27 85 110 122 114 122 111 118 156 156 125 125 155 166 162 214 243 268 285 206 171 173 172 170 172 183 190 191
113 111 103 98 101 105 108 106 102 97 86 74 63 65 79 84 82 74 68 86 146 158 159 321 354 31 44 67 79 62 60 348 344 0 19 31 39 37 38 41 66 125 98 73 88 119 93 74 110 135 82 74 118 93 27 36 42 69 126 179 58 62 52 62 86 94 87 98 111 101 98 224 189 167 159 221 249 255 234 139 145 156 162 171 182 194 198 198
121 125 115 106 103 103 106 107 103 93 70 59 62 77 91 91 83 68 58 63 145 190 226 284 307 295 326 23 81 66 358 339 346 5 29 37 42 42 44 43 53 92 79 61 67 94 95 108 179 157 129 139 103 81 28 63 48 118 118 126 105 79 61 69 71 80 96 116 102 84 14 296 246 241 227 215 221 219 168 133 147 152 162 186 198 204 204 203
125 132 132 125 117 108 108 111 102 74 49 51 72 92 102 96 81 69 69 72 72 66 12 324 292 262 269 30 76 73 328 343 360 15 36 40 43 42 42 39 45 73 73 57 54 53 84 134 150 127 118 111 82 54 18 78 118 125 100 87 82 81 1 68 92 123 110 133 127 109 194 264 267 282 253 218 199 184 155 156 177 165 182 203 210 216 211 210
130 139 143 139 130 121 115 118 95 56 37 52 86 105 112 102 80 76 83 76 69 56 49 67 79 84 85 76 84 90 348 0 14 27 43 48 47 42 40 36 39 58 70 58 46 49 92 120 128 117 96 73 80 39 21 80 102 102 107 96 44 15 7 74 113 188 260 139 157 124 139 268 296 280 237 209 179 171 167 177 197 191 202 210 214 223 218 219
140 148 149 145 143 138 122 122 88 51 39 60 99 120 125 116 87 89 98 76 59 43 31 61 96 84 73 66 75 95 14 17 16 29 55 58 53 46 41 40 42 52 69 62 42 55 99 112 93 83 87 115 87 31 56 75 81 94 96 108 348 3 72 183 166 192 193 183 176 134 70 280 231 236 246 199 166 167 177 188 203 206 213 218 218 226 224 227
151 156 157 161 162 150 131 122 89 65 58 72 107 140 150 148 95 122 132 96 46 20 0 359 248 149 74 61 26 35 19 19 16 32 70 59 55 52 46 47 52 56 68 69 54 64 93 101 91 91 94 101 91 25 92 45 57 103 55 94 319 5 342 238 266 199 186 176 183 145 310 274 236 242 248 188 164 163 189 204 208 213 218 223 223 229 233 233
162 166 165 172 166 147 134 119 103 91 79 82 95 111 147 156 123 147 157 178 329 355 7 64 87 84 87 111 293 32 18 23 35 37 40 37 47 62 57 53 61 62 65 67 63 70 88 91 87 91 67 77 100 43 45 18 30 96 26 52 34 9 263 285 334 237 96 172 164 76 292 264 267 262 231 181 173 172 197 211 211 218 221 225 227 229 238 240
184 178 168 167 154 141 134 121 116 98 83 84 85 85 101 125 122 134 163 279 298 5 56 96 84 75 77 70 256 21 17 40 43 15 359 359 27 38 41 56 68 70 63 57 59 65 75 78 72 66 4 21 45 53 31 0 15 40 24 315 345 201 261 307 322 98 76 207 116 87 255 264 271 264 213 178 180 185 204 215 213 220 222 225 232 231 239 246
198 186 172 160 145 139 137 123 121 107 95 84 72 66 97 133 117 90 90 53 129 83 80 76 35 72 94 49 347 10 11 21 12 4 350 346 356 343 358 82 79 74 65 50 52 53 55 66 69 62 39 18 45 72 50 20 354 7 46 275 278 256 289 315 309 110 89 195 143 163 239 276 264 257 210 181 188 197 211 223 219 222 227 225 230 233 237 247
192 185 172 156 145 144 137 122 130 125 113 97 80 70 81 127 136 96 84 91 121 92 59 62 30 64 86 13 12 349 338 347 353 357 353 356 356 345 25 129 76 68 65 36 35 28 30 46 65 56 51 36 51 90 69 11 314 325 18 298 264 259 289 309 294 298 29 98 231 225 237 265 262 261 218 198 195 201 216 226 223 223 228 227 230 236 237 241
176 174 163 143 133 129 123 132 139 134 121 97 80 78 84 86 82 102 83 109 171 323 22 35 30 61 52 359 340 312 316 331 346 353 352 3 35 43 64 77 51 59 35 17 26 23 15 24 47 57 36 21 32 65 99 220 244 263 289 296 298 278 244 275 272 275 33 42 262 255 255 266 268 262 227 211 198 205 221 225 226 228 229 231 232 235 237 240
162 155 141 125 117 113 121 144 153 159 153 114 91 89 87 78 71 70 55 57 71 344 324 349 25 115 237 314 317 318 318 331 349 359 2 2 41 60 52 42 50 67 47 21 10 15 29 31 41 53 6 351 3 120 153 199 201 211 238 228 267 286 264 258 263 262 28 332 276 257 253 267 277 272 238 216 204 211 229 231 234 235 230 234 235 236 238 239
146 138 128 115 105 96 148 179 197 209 219 242 232 41 51 67 45 20 35 48 73 122 158 288 103 150 341 338 335 337 324 338 20 15 12 3 334 31 22 20 33 48 52 40 335 0 69 65 54 133 257 263 228 200 176 179 174 174 189 214 250 277 276 269 271 273 6 341 268 239 250 267 276 277 254 212 201 216 232 235 237 236 232 233 234 238 238 237
138 131 121 92 67 47 221 207 230 239 249 249 224 141 180 158 78 248 18 41 47 104 33 283 200 173 350 328 342 350 345 311 7 14 15 8 1 8 352 16 44 37 10 278 310 351 61 77 141 231 228 227 199 187 149 103 105 123 173 228 275 270 271 285 279 267 11 13 277 273 280 270 268 272 260 183 187 218 222 223 232 232 232 235 234 239 240 243
136 123 88 56 61 74 105 204 253 264 274 240 190 134 152 158 126 154 138 91 329 15 28 337 11 347 308 344 357 3 62 25 352 2 7 6 21 41 355 40 70 66 344 342 12 11 41 82 240 240 181 119 102 123 95 89 103 105 143 186 290 272 282 305 294 235 40 8 293 311 305 282 270 267 256 188 198 225 219 219 230 228 230 235 233 237 240 245
134 94 48 41 68 85 82 77 326 323 22 126 139 124 118 119 126 141 106 98 1 344 16 12 27 342 331 21 11 20 63 48 333 340 355 3 29 70 85 65 70 63 4 17 117 91 41 236 232 199 143 145 101 26 53 59 64 155 177 183 278 285 343 300 298 326 287 245 267 301 300 286 289 295 280 222 217 251 249 232 239 231 231 236 235 235 233 236
150 6 9 16 93 82 74 72 61 75 98 116 119 120 122 115 125 142 89 83 57 301 1 355 180 273 346 5 0 25 90 69 221 324 350 15 80 56 91 119 84 54 8 24 104 110 156 217 152 88 94 156 152 19 60 60 340 272 212 194 243 279 242 245 287 326 310 281 253 299 306 291 321 346 299 293 247 263 264 252 254 241 236 245 251 245 234 232
208 303 335 356 108 71 83 95 86 99 109 119 121 123 124 118 136 149 81 68 349 302 326 289 205 196 162 4 352 14 128 41 146 302 348 31 97 35 72 134 89 100 236 357 81 99 196 196 139 99 40 76 112 55 136 132 332 302 233 202 222 276 268 265 310 337 342 347 329 3 350 296 318 310 273 312 325 265 249 242 252 249 241 243 247 246 238 234
246 284 307 44 101 76 112 124 106 115 107 124 141 138 129 101 356 132 79 61 323 287 320 254 67 14 332 353 347 33 91 349 295 338 12 28 29 102 81 348 51 140 208 198 80 147 198 43 81 136 85 57 67 338 218 139 46 323 244 197 215 278 286 285 303 349 354 293 302 50 91 270 303 287 272 319 304 276 273 252 253 254 245 236 237 243 239 234
237 254 275 313 169 75 229 178 159 146 104 177 169 161 177 76 52 53 60 42 316 260 85 266 341 47 353 332 349 91 116 301 320 27 31 22 345 89 85 299 57 120 181 111 21 255 171 56 30 74 70 55 44 343 225 141 75 284 226 127 302 303 304 292 221 173 230 278 319 20 121 239 289 272 282 336 305 286 282 263 258 251 244 239 238 240 237 233
218 225 263 305 235 275 302 157 170 178 219 194 181 181 200 210 326 23 80 68 296 122 82 295 102 53 349 2 34 78 235 311 37 335 3 36 18 44 81 192 164 153 126 104 309 278 144 195 224 137 79 52 227 237 187 143 132 260 257 313 299 297 299 221 137 169 271 350 328 320 87 187 275 270 312 358 305 286 277 264 258 250 243 240 239 240 237 236
208 218 241 326 284 255 137 148 183 204 213 183 177 188 205 285 349 53 78 163 279 58 84 341 69 344 344 22 23 25 356 357 70 301 344 44 34 43 89 174 134 123 63 81 213 234 130 240 208 152 139 222 235 228 166 156 220 278 310 313 320 53 45 84 108 141 36 22 277 266 77 78 278 279 312 3 271 265 266 263 258 253 248 242 240 242 239 236
210 220 242 286 287 209 174 221 231 202 185 182 182 193 208 32 51 64 42 246 250 10 230 0 289 317 25 44 354 4 36 350 321 329 352 32 11 31 88 157 101 110 12 17 166 225 338 308 194 140 178 201 217 249 169 177 245 319 348 332 0 42 47 60 70 91 59 342 261 250 217 97 297 285 261 221 225 227 243 269 269 260 256 248 241 242 239 234
223 230 248 264 260 249 256 280 220 184 176 176 175 164 58 30 65 96 226 239 187 317 332 26 323 21 48 84 327 0 26 338 328 359 17 3 358 15 43 53 58 64 3 359 344 305 343 351 241 271 228 141 75 346 189 168 316 5 20 343 351 354 23 27 353 41 63 280 259 248 261 112 228 268 252 238 243 225 224 257 266 261 255 249 242 240 237 232
229 237 248 263 261 256 258 236 178 167 167 165 153 88 69 40 356 175 246 285 0 295 215 48 316 44 52 70 63 341 340 341 0 49 59 25 22 11 28 165 158 31 350 306 325 330 314 245 273 316 278 126 91 350 336 353 12 31 39 29 19 351 5 8 334 14 207 252 220 200 279 251 229 253 260 263 265 248 229 235 249 255 253 249 244 240 237 229
319 260 263 275 269 251 211 176 167 158 160 156 125 55 74 87 241 221 247 311 5 307 51 63 357 81 73 37 1 307 296 294 7 46 103 100 58 10 306 203 159 65 326 240 341 349 327 300 318 339 286 133 122 121 320 315 1 22 52 78 72 41 10 329 302 332 287 276 236 190 240 282 273 268 246 248 260 253 238 235 242 251 252 250 248 245 243 233
37 32 10 34 67 120 139 150 158 154 156 146 91 60 81 162 235 216 252 260 262 352 29 65 28 30 62 111 271 273 196 271 353 36 8 33 49 333 286 308 23 103 100 89 32 48 0 301 283 189 243 88 126 165 169 151 48 14 165 127 112 129 124 260 256 271 293 299 287 218 202 217 269 281 228 227 257 263 254 252 254 258 256 259 267 265 253 240
41 46 53 67 78 103 130 145 153 154 157 125 65 75 141 232 246 206 236 242 225 14 7 45 65 42 348 314 304 282 177 266 352 47 13 30 177 202 210 245 230 114 113 86 278 152 157 268 265 291 295 108 127 200 134 107 64 312 160 106 88 171 154 180 205 194 259 324 298 251 229 208 235 279 275 280 292 280 271 267 268 267 260 260 268 261 250 243
46 53 62 68 78 106 136 150 152 157 154 94 64 98 201 231 237 186 208 188 132 147 132 6 58 81 306 307 331 357 66 258 353 36 322 249 208 199 193 220 186 135 137 147 221 156 43 280 290 2 5 74 156 213 103 66 100 88 108 191 228 163 125 113 280 349 67 13 281 272 271 280 310 293 299 354 320 294 291 277 263 263 267 266 260 256 249 244
73 66 61 54 61 122 158 163 154 154 111 84 97 211 220 222 200 189 199 93 129 131 116 274 271 180 249 285 295 311 346 295 337 31 255 267 235 192 178 230 185 158 168 158 211 192 157 281 300 47 89 350 286 173 59 35 119 108 189 215 188 98 93 96 341 349 41 249 274 314 287 293 346 303 310 344 308 287 286 279 269 269 270 260 255 255 251 245
136 90 59 38 41 152 162 164 156 131 82 78 153 241 214 200 236 180 180 137 125 90 102 199 233 196 196 222 269 260 171 249 306 341 219 259 256 179 147 182 156 121 177 133 131 192 126 285 303 1 177 308 354 61 19 357 65 112 197 180 93 126 263 47 98 337 359 287 287 304 293 280 211 233 287 304 288 284 287 284 279 273 263 255 256 257 254 251
126 84 27 18 43 110 152 169 137 81 71 96 225 250 211 219 278 232 221 260 123 109 147 215 234 83 179 180 208 223 199 207 207 201 212 216 256 185 138 177 158 119 110 105 131 209 107 158 287 309 257 311 7 78 231 309 45 50 14 8 37 157 178 180 162 162 194 267 288 314 322 287 227 209 233 269 279 281 283 285 278 269 261 257 257 257 254 250
92 67 317 337 61 64 124 131 75 62 76 176 205 216 258 261 267 282 307 327 146 152 202 203 168 175 210 203 206 202 187 192 173 177 222 225 256 242 176 163 149 143 63 57 106 185 81 141 252 304 329 305 263 210 195 178 150 113 114 257 311 96 139 207 275 140 146 178 228 293 309 278 259 208 216 258 274 270 264 269 271 269 268 264 258 255 254 247
86 63 284 326 59 14 80 74 48 67 127 184 203 208 266 196 188 314 336 8 76 253 189 161 164 187 189 200 234 205 156 182 184 184 230 235 228 237 240 141 153 152 107 76 119 209 128 164 220 293 308 244 232 241 195 181 170 158 181 198 185 144 119 77 297 288 114 161 186 182 287 278 271 191 211 247 262 264 259 254 264 273 273 272 267 256 250 246
91 183 272 358 353 272 78 71 8 80 125 188 234 236 289 98 116 312 331 20 39 1 58 101 158 180 171 178 210 185 155 180 199 192 227 224 200 217 321 45 131 132 113 141 230 225 144 113 168 267 265 237 250 292 251 186 154 143 179 182 149 135 127 140 231 250 230 194 176 112 264 271 262 180 202 243 247 262 265 250 261 275 275 274 274 264 253 248
126 197 245 36 328 87 79 60 309 8 50 256 281 304 273 117 103 61 293 302 232 88 24 333 198 192 221 191 150 177 193 200 188 190 224 228 206 236 329 34 111 111 93 141 230 220 122 88 39 273 285 308 309 311 321 38 92 135 223 155 144 158 140 152 176 181 210 215 160 105 252 268 270 198 198 243 254 268 276 265 259 269 276 275 271 270 262 253
160 203 87 23 336 143 112 184 233 284 280 297 355 306 256 179 149 148 217 249 223 151 137 250 209 190 251 100 112 196 212 208 203 212 214 201 212 357 19 11 57 120 117 195 193 205 233 168 80 325 321 335 353 346 332 338 86 213 243 191 156 115 98 111 133 101 271 226 167 158 244 260 269 277 270 281 287 288 288 282 264 259 271 276 274 273 267 261
122 276 307 351 18 76 136 184 152 153 223 41 349 265 249 326 194 171 190 215 196 170 165 275 234 137 85 82 69 244 220 217 253 296 24 207 264 350 14 358 11 145 222 222 172 231 227 197 151 129 292 292 300 306 306 280 233 227 225 206 188 140 134 153 130 113 243 235 157 176 245 263 279 299 303 299 299 298 296 296 287 266 263 269 274 275 272 268
122 19 304 332 17 59 70 117 109 119 165 161 291 287 159 198 293 250 174 187 180 157 154 256 184 107 78 117 187 263 250 247 322 334 289 241 264 310 337 350 20 180 182 88 56 68 98 225 218 194 212 236 254 264 264 83 284 271 255 218 197 182 160 130 110 171 203 181 185 233 250 273 288 291 295 296 297 297 297 299 299 292 283 278 276 276 276 271
127 174 168 320 346 35 36 14 68 90 162 181 193 252 185 225 298 332 192 217 221 134 156 179 162 169 187 178 191 240 241 249 10 237 223 223 246 297 301 15 56 290 154 82 34 85 93 288 245 205 233 249 262 277 302 358 284 268 266 243 200 185 163 159 199 210 157 122 252 251 243 263 280 283 290 296 297 297 297 298 299 299 298 294 290 287 282 275
114 193 148 108 262 204 67 22 99 93 79 156 145 159 186 219 247 222 211 296 349 239 191 231 235 211 195 174 166 206 238 287 261 237 203 209 260 345 343 281 5 347 41 58 355 99 123 260 244 193 255 268 273 278 279 276 266 262 266 258 229 193 177 196 223 212 158 193 253 261 262 269 277 284 290 290 290 293 296 297 298 299 299 296 293 291 287 282
78 134 351 27 43 186 153 51 106 102 88 87 113 185 182 192 227 235 200 75 343 284 197 231 259 236 201 181 152 175 215 216 266 258 195 167 191 134 350 258 228 8 49 92 346 118 148 249 251 146 288 283 274 276 273 257 264 275 268 249 227 216 203 209 232 225 198 232 255 267 278 279 278 280 282 282 285 289 292 295 296 296 297 296 295 292 290 288
129 171 190 45 55 106 48 32 91 102 74 28 236 238 188 183 216 243 184 154 207 259 183 219 255 244 194 185 173 205 218 190 218 261 178 150 223 200 202 215 159 60 41 123 326 300 188 266 296 91 317 288 285 318 319 242 243 271 278 268 235 228 225 221 238 239 220 244 259 269 280 280 272 269 270 274 282 290 294 296 298 298 300 302 303 301 297 294
154 146 143 110 84 6 3 17 95 115 93 272 215 230 218 202 211 212 192 177 164 173 186 202 226 112 102 182 211 239 237 188 193 238 190 178 226 215 212 207 142 130 154 169 114 105 172 271 4 57 342 284 310 2 324 290 270 268 279 280 248 211 221 222 225 214 199 232 263 280 282 274 273 277 278 278 284 294 297 298 303 306 309 311 310 306 303 300
137 64 93 106 93 302 129 58 55 121 224 233 207 207 221 248 235 194 201 333 68 107 192 193 168 110 87 204 229 246 251 206 209 238 204 174 114 80 105 119 119 132 163 165 146 140 140 145 37 59 312 274 300 331 313 315 319 291 269 251 208 198 231 249 253 228 205 208 261 270 260 271 289 301 302 301 302 306 305 304 306 308 310 311 307 303 301 300